| time (UTC) | temp F | wind direction | speed MPH | gust MPH | rain 1hr in | rain 24hr in | rain mn in | humidity % | barometer mb |
| 20260506090006 | 92 | 0 | 0.0 | 0.0 | 0.00 | 0.00 | 0.00 | 17 | -170.9 |
| 20260506083004 | 85 | 0 | 0.0 | 0.0 | 0.00 | 0.00 | 0.00 | 20 | 999.4 |
| 20260506073005 | 91 | 0 | 0.0 | 0.0 | 0.00 | 0.00 | 0.00 | 20 | 999.5 |
| 20260506043004 | 51 | 0 | 0.0 | 0.0 | 0.00 | 0.00 | 0.00 | 93 | 999.7 |
| 20260506040004 | 47 | 0 | 0.0 | 0.0 | 0.00 | 0.00 | 0.00 | 10 | 999.6 |
| 20260506033004 | 47 | 0 | 0.0 | 0.0 | 0.00 | 0.00 | 0.00 | 99 | 999.4 |
| 20260506030004 | 47 | 0 | 0.0 | 0.0 | 0.00 | 0.00 | 0.00 | 99 | 999.1 |
| 20260506023005 | 47 | 0 | 0.0 | 0.0 | 0.00 | 0.00 | 0.00 | 95 | 999.0 |
| 20260506020006 | 46 | 0 | 0.0 | 0.0 | 0.00 | 0.00 | 0.00 | 89 | 999.0 |
| 20260506013006 | 44 | 0 | 0.0 | 0.0 | 0.00 | 0.00 | 0.00 | 89 | 998.8 |
| 20260506010003 | 45 | 0 | 0.0 | 0.0 | 0.00 | 0.00 | 0.00 | 89 | 998.8 |
| 20260506003006 | 45 | 0 | 0.0 | 0.0 | 0.00 | 0.00 | 0.00 | 10 | 998.9 |
| 20260506000005 | 46 | 0 | 0.0 | 0.0 | 0.00 | 0.00 | 0.00 | 89 | 998.8 |
| 20260505233003 | 47 | 0 | 0.0 | 0.0 | 0.00 | 0.00 | 0.00 | 88 | 998.9 |
| 20260505230002 | 49 | 0 | 0.0 | 0.0 | 0.00 | 0.00 | 0.00 | 89 | 999.0 |
| 20260505223005 | 51 | 0 | 0.0 | 0.0 | 0.00 | 0.00 | 0.00 | 88 | 999.2 |
| 20260505220004 | 52 | 0 | 0.0 | 0.0 | 0.00 | 0.00 | 0.00 | 85 | 999.2 |
| 20260505213003 | 53 | 0 | 0.0 | 0.0 | 0.00 | 0.00 | 0.00 | 83 | 999.3 |
| 20260505210004 | 53 | 0 | 0.0 | 0.0 | 0.00 | 0.00 | 0.00 | 83 | 999.3 |
| 20260505203004 | 53 | 0 | 0.0 | 0.0 | 0.00 | 0.00 | 0.00 | 83 | 999.2 |
| 20260505200003 | 54 | 0 | 0.0 | 0.0 | 0.00 | 0.00 | 0.00 | 80 | 999.1 |
| 20260505193003 | 55 | 0 | 0.0 | 0.0 | 0.00 | 0.00 | 0.00 | 79 | 999.1 |
| 20260505190005 | 55 | 0 | 0.0 | 0.0 | 0.00 | 0.00 | 0.00 | 78 | 999.1 |
| 20260505183005 | 55 | 0 | 0.0 | 0.0 | 0.00 | 0.00 | 0.00 | 84 | 1278.9 |